| time (UTC) | temp C | wind direction | speed KPH | gust KPH | rain 1hr cm | rain 24hr cm | rain mn cm | humidity % | barometer mb |
| 20260508063513 | 13 | 77 | 6.4 | 9.7 | 0.00 | 0.00 | 0.00 | 71 | 1022.0 |
| 20260508050513 | 7 | 53 | 0.0 | 0.0 | 0.00 | 0.00 | 0.00 | 94 | 1021.7 |
| 20260508044513 | 5 | 53 | 0.0 | 0.0 | 0.00 | 0.00 | 0.00 | 96 | 1021.6 |
| 20260508041514 | 3 | 52 | 0.0 | 0.0 | 0.00 | 0.00 | 0.00 | 95 | 1021.4 |
| 20260508033513 | 2 | 53 | 0.0 | 0.0 | 0.00 | 0.00 | 0.00 | 94 | 1021.1 |
| 20260508031514 | 2 | 53 | 0.0 | 0.0 | 0.00 | 0.00 | 0.00 | 93 | 1021.0 |
| 20260508030513 | 2 | 53 | 0.0 | 0.0 | 0.00 | 0.00 | 0.00 | 94 | 1021.0 |
| 20260508024513 | 2 | 53 | 0.0 | 0.0 | 0.00 | 0.00 | 0.00 | 94 | 1020.8 |
| 20260508023514 | 3 | 53 | 0.0 | 0.0 | 0.00 | 0.00 | 0.00 | 94 | 1020.8 |
| 20260508021514 | 2 | 53 | 0.0 | 0.0 | 0.00 | 0.00 | 0.00 | 94 | 1020.7 |
| 20260508020514 | 1 | 53 | 0.0 | 0.0 | 0.00 | 0.00 | 0.00 | 93 | 1020.7 |
| 20260508015513 | 2 | 53 | 0.0 | 0.0 | 0.00 | 0.00 | 0.00 | 93 | 1020.7 |
| 20260508014514 | 2 | 53 | 0.0 | 0.0 | 0.00 | 0.00 | 0.00 | 93 | 1020.6 |
| 20260508011513 | 2 | 53 | 0.0 | 0.0 | 0.00 | 0.00 | 0.00 | 92 | 1020.4 |
| 20260508010513 | 2 | 53 | 0.0 | 0.0 | 0.00 | 0.00 | 0.00 | 92 | 1020.5 |
| 20260508005513 | 2 | 53 | 0.0 | 0.0 | 0.00 | 0.00 | 0.00 | 92 | 1020.4 |
| 20260508004514 | 2 | 53 | 0.0 | 0.0 | 0.00 | 0.00 | 0.00 | 92 | 1020.3 |
| 20260508003513 | 2 | 53 | 0.0 | 0.0 | 0.00 | 0.00 | 0.00 | 92 | 1020.3 |
| 20260507234513 | 3 | 53 | 0.0 | 0.0 | 0.00 | 0.00 | 0.00 | 91 | 1020.2 |
| 20260507233514 | 3 | 53 | 0.0 | 0.0 | 0.00 | 0.00 | 0.00 | 91 | 1020.1 |
| 20260507231514 | 3 | 53 | 0.0 | 0.0 | 0.00 | 0.00 | 0.00 | 90 | 1020.1 |
| 20260507225513 | 3 | 53 | 0.0 | 0.0 | 0.00 | 0.00 | 0.00 | 89 | 1020.0 |
| 20260507223514 | 3 | 53 | 0.0 | 0.0 | 0.00 | 0.00 | 0.00 | 88 | 1019.8 |
| 20260507222514 | 4 | 53 | 0.0 | 0.0 | 0.00 | 0.00 | 0.00 | 88 | 1019.8 |
| 20260507221510 | 4 | 53 | 0.0 | 0.0 | 0.00 | 0.00 | 0.00 | 88 | 1019.8 |
| 20260507220514 | 4 | 53 | 0.0 | 0.0 | 0.00 | 0.00 | 0.00 | 87 | 1019.7 |
| 20260507215514 | 5 | 53 | 0.0 | 0.0 | 0.00 | 0.00 | 0.00 | 87 | 1019.7 |
| 20260507213513 | 5 | 53 | 0.0 | 1.6 | 0.00 | 0.00 | 0.00 | 86 | 1019.7 |
| 20260507204515 | 7 | 53 | 1.6 | 1.6 | 0.00 | 0.00 | 0.00 | 81 | 1019.3 |
| 20260507202513 | 7 | 53 | 1.6 | 8.0 | 0.00 | 0.00 | 0.00 | 80 | 1019.1 |
| 20260507191514 | 9 | 297 | 0.0 | 0.0 | 0.00 | 0.00 | 0.00 | 76 | 1018.2 |
| 20260507190514 | 10 | 294 | 0.0 | 0.0 | 0.00 | 0.00 | 0.00 | 75 | 1018.0 |
| 20260507182513 | 11 | 298 | 4.8 | 11.3 | 0.00 | 0.00 | 0.00 | 71 | 1017.7 |
| 20260507181514 | 11 | 280 | 4.8 | 11.3 | 0.00 | 0.00 | 0.00 | 70 | 1017.8 |
| 20260507180514 | 11 | 285 | 6.4 | 12.9 | 0.00 | 0.00 | 0.00 | 68 | 1017.7 |
| 20260507175514 | 12 | 329 | 8.0 | 12.9 | 0.00 | 0.00 | 0.00 | 66 | 1017.7 |
| 20260507174513 | 13 | 296 | 8.0 | 12.9 | 0.00 | 0.00 | 0.00 | 63 | 1017.6 |
| 20260507170515 | 15 | 311 | 6.4 | 12.9 | 0.00 | 0.00 | 0.00 | 50 | 1017.4 |
| 20260507165514 | 16 | 339 | 3.2 | 11.3 | 0.00 | 0.00 | 0.00 | 48 | 1017.3 |
| 20260507162514 | 16 | 337 | 6.4 | 12.9 | 0.00 | 0.00 | 0.00 | 49 | 1017.4 |
| 20260507155514 | 15 | 351 | 9.7 | 16.1 | 0.00 | 0.00 | 0.00 | 55 | 1017.4 |
| 20260507154515 | 15 | 290 | 8.0 | 12.9 | 0.00 | 0.00 | 0.00 | 58 | 1017.5 |
| 20260507153513 | 15 | 353 | 8.0 | 14.5 | 0.00 | 0.00 | 0.00 | 54 | 1017.4 |
| 20260507152513 | 16 | 309 | 9.7 | 16.1 | 0.00 | 0.00 | 0.00 | 53 | 1017.4 |
| 20260507151513 | 15 | 352 | 8.0 | 16.1 | 0.00 | 0.00 | 0.00 | 55 | 1017.2 |
| 20260507143514 | 15 | 347 | 6.4 | 16.1 | 0.00 | 0.00 | 0.00 | 59 | 1017.2 |
| 20260507134514 | 15 | 343 | 8.0 | 12.9 | 0.00 | 0.00 | 0.00 | 56 | 1017.4 |
| 20260507132514 | 15 | 346 | 8.0 | 19.3 | 0.00 | 0.00 | 0.00 | 58 | 1017.3 |
| 20260507131514 | 15 | 339 | 6.4 | 16.1 | 0.00 | 0.00 | 0.00 | 58 | 1017.3 |
| 20260507130513 | 15 | 331 | 6.4 | 19.3 | 0.00 | 0.00 | 0.00 | 57 | 1017.2 |
| 20260507125514 | 15 | 324 | 12.9 | 19.3 | 0.00 | 0.00 | 0.00 | 51 | 1017.2 |
| 20260507123515 | 15 | 335 | 8.0 | 16.1 | 0.00 | 0.00 | 0.00 | 58 | 1017.1 |
| 20260507121514 | 15 | 348 | 9.7 | 16.1 | 0.00 | 0.00 | 0.00 | 57 | 1017.0 |
| 20260507115515 | 15 | 306 | 6.4 | 19.3 | 0.00 | 0.00 | 0.00 | 63 | 1017.0 |
| 20260507113514 | 15 | 347 | 9.7 | 16.1 | 0.00 | 0.00 | 0.00 | 60 | 1017.0 |
| 20260507111514 | 15 | 339 | 6.4 | 19.3 | 0.00 | 0.00 | 0.00 | 70 | 1017.0 |
| 20260507110514 | 14 | 279 | 9.7 | 20.9 | 0.00 | 0.00 | 0.00 | 68 | 1017.0 |
| 20260507105514 | 14 | 318 | 9.7 | 16.1 | 0.00 | 0.00 | 0.00 | 68 | 1017.0 |
| 20260507104515 | 14 | 334 | 9.7 | 19.3 | 0.00 | 0.00 | 0.00 | 67 | 1016.9 |
| 20260507103513 | 14 | 311 | 8.0 | 14.5 | 0.00 | 0.00 | 0.00 | 68 | 1016.9 |
| 20260507101514 | 13 | 316 | 9.7 | 19.3 | 0.00 | 0.00 | 0.00 | 67 | 1016.8 |
| 20260507100514 | 13 | 325 | 9.7 | 16.1 | 0.00 | 0.00 | 0.00 | 63 | 1016.7 |
| 20260507095513 | 13 | 279 | 9.7 | 19.3 | 0.00 | 0.00 | 0.00 | 69 | 1016.7 |
| 20260507094513 | 13 | 293 | 4.8 | 16.1 | 0.00 | 0.00 | 0.00 | 71 | 1016.7 |
| 20260507093513 | 13 | 352 | 8.0 | 14.5 | 0.00 | 0.00 | 0.00 | 71 | 1016.6 |
| 20260507092513 | 13 | 284 | 8.0 | 19.3 | 0.00 | 0.00 | 0.00 | 71 | 1016.5 |
| 20260507085513 | 13 | 308 | 8.0 | 19.3 | 0.00 | 0.00 | 0.00 | 71 | 1016.4 |
| 20260507084513 | 13 | 321 | 8.0 | 19.3 | 0.00 | 0.00 | 0.00 | 71 | 1016.3 |
| 20260507083513 | 12 | 312 | 8.0 | 19.3 | 0.00 | 0.00 | 0.00 | 75 | 1016.2 |